Find Starlink 30925

NORAD ID: 58406 Int'l Des: 2023-180 Owner: SPXS Country: US Constellation: starlink operational
LEOCIRCULAR

实时位置

正在加载3D地球...

关于 Starlink 30925

正在加载描述...

即将过境

Passes for default location (London). Set your location on the main map for personalized predictions.

高度历史

Loading altitude history...

两行轨道根数

1 58406U 23180E 26129.95222155 -.00003136 00000-0 -10452-3 0 9998
2 58406 43.0040 66.7177 0001422 280.6380 79.4311 15.27568770136874
Epoch: May 9, 2026 • Age: 12 hours

当前状态

高度 484.7 km
速度 7.62 km/s
星下点 -11.94°S, 12.51°E
发射日期 Nov 22, 2023
运行时间 2.4 years
类型 internet

技术详情

分类 Payload
质量 730.00 kg
干质量 700.00 kg
总质量 730.00 kg
长度 0.30 m
直径 4.10 m
跨度 29.00 m
形状 Box + pan
制造商 SPXS
平台类型 Starlink V2M
阶段状态 In Orbit
所有者/国家 SPXS/US

Most Searched